Location: Baia Mare
(47.6567°N, 23.5850°E)
Time: 11:03:29
(UTC+03:00)

ISS - Pass Details

Date: 22 July 2018
Orbit: 402 x 408 km, 51.6° (Epoch: 19 July)

Event Time Altitude Azimuth Distance (km) Brightness Sun altitude
Rises 23:02:27 0° 252° (WSW) 2,315 0.3 -14.3°
Reaches altitude 10° 23:04:32 10° 255° (WSW) 1,459 -0.7 -14.5°
Maximum altitude 23:07:47 69° 339° (NNW) 436 -3.5 -14.8°
Drops below altitude 10° 23:11:04 10° 64° (ENE) 1,467 -1.1 -15.2°
Sets 23:13:10 0° 67° (ENE) 2,330 -0.1 -15.4°
